Valdosta, GA

3:01 PM EST on February 13, 2016 (GMT -0500)
Valdosta Regional

Weather History for KVLD - December, 2012

Change the Weather History Date:

Tuesday, December 25, 2012

  Actual Average Record
Temperature  
Mean Temperature 63 °F 52 °F  
Max Temperature 68 °F 63 °F 82 °F (2015)
Min Temperature 58 °F 40 °F 28 °F (1999)
Degree Days  
Heating Degree Days 2 14  
Month to date heating degree days 133 297  
Since 1 July heating degree days 346 528  
Growing Degree Days 14 (Base 50)    
Moisture  
Dew Point 60 °F    
Average Humidity 86    
Maximum Humidity 93    
Minimum Humidity 78    
Precipitation  
Precipitation 0.18 in 0.08 in 1.23 in (2004)
Month to date precipitation 2.61 2.72  
Year to date precipitation 42.63 50.15  
Sea Level Pressure  
Sea Level Pressure 29.94 in    
Wind  
Wind Speed 5 mph (SSE)    
Max Wind Speed 15 mph    
Max Gust Speed 20 mph    
Visibility 5 miles    
Events Fog , Rain , Thunderstorm    
T = Trace of Precipitation, MM = Missing Value Source: NWS Daily Summary

Daily Weather History Graph

Daily Weather History Graph

Search for Another Location

Airport or City:

Trip Planner

Search our weather history database for the weather conditions in past years. The results will help you decide how hot, cold, wet, or windy it might be!

Date:

Astronomy

Dec. 25, 2012 Rise Set
Actual Time 7:28 AM EST 5:38 PM EST
Civil Twilight 7:02 AM EST 6:04 PM EST
Nautical Twilight 6:31 AM EST 6:35 PM EST
Astronomical Twilight 6:02 AM EST 7:04 PM EST
Moon 3:43 PM EST (12/25) 5:03 AM EST (12/25)
Length of Visible Light 11h 02m
Length of Day
10h 09m
Waxing Gibbous, 93% of the Moon is Illuminated
Dec 25
Waxing Gibbous
Dec 28
Full
Jan 4
Last Quarter
Jan 11
New
Jan 18
First Quarter

Hourly Weather History & Observations

Time (EST) Temp. Dew Point Humidity Pressure Visibility Wind Dir Wind Speed Gust Speed Precip Events Conditions
12:53 AM 60.1 °F 57.0 °F 90% 29.98 in 10.0 mi South 5.8 mph - 0.01 in   Overcast
1:11 AM 60.8 °F 57.2 °F 88% 29.96 in 10.0 mi South 5.8 mph - 0.01 in   Overcast
1:32 AM 60.8 °F 57.2 °F 88% 29.96 in 10.0 mi South 6.9 mph - 0.01 in   Overcast
1:53 AM 61.0 °F 57.9 °F 90% 29.98 in 10.0 mi South 6.9 mph - 0.02 in   Overcast
2:18 AM 60.8 °F 57.2 °F 88% 29.96 in 9.0 mi South 5.8 mph - N/A   Overcast
2:53 AM 61.0 °F 57.0 °F 87% 29.98 in 8.0 mi South 5.8 mph - 0.01 in   Overcast
3:45 AM 60.8 °F 57.2 °F 88% 29.96 in 7.0 mi South 4.6 mph - 0.01 in   Overcast
3:53 AM 60.1 °F 57.0 °F 90% 29.98 in 6.0 mi South 4.6 mph - 0.01 in   Overcast
4:53 AM 61.0 °F 57.0 °F 87% 29.98 in 6.0 mi Calm Calm - 0.01 in   Overcast
5:43 AM 60.8 °F 57.2 °F 88% 29.96 in 6.0 mi Calm Calm - N/A   Overcast
5:53 AM 61.0 °F 57.9 °F 90% 29.99 in 6.0 mi Calm Calm - N/A   Overcast
6:53 AM 61.0 °F 57.9 °F 90% 30.00 in 5.0 mi Calm Calm - 0.01 in Rain Light Rain
7:08 AM 60.8 °F 57.2 °F 88% 29.98 in 5.0 mi Calm Calm - 0.00 in   Overcast
7:16 AM 60.8 °F 57.2 °F 88% 29.98 in 5.0 mi Calm Calm - 0.01 in   Overcast
7:45 AM 60.8 °F 57.2 °F 88% 29.99 in 1.8 mi Calm Calm - 0.01 in   Overcast
7:53 AM 61.0 °F 57.9 °F 90% 30.01 in 1.0 mi Calm Calm - 0.01 in   Overcast
8:18 AM 60.8 °F 57.2 °F 88% 29.99 in 3.0 mi SE 3.5 mph - N/A   Overcast
8:39 AM 60.8 °F 57.2 °F 88% 29.99 in 2.0 mi Calm Calm - 0.01 in Rain Light Rain
8:53 AM 61.0 °F 57.9 °F 90% 30.02 in 2.5 mi Calm Calm - 0.01 in Rain Light Rain
9:00 AM 60.8 °F 59.0 °F 94% 29.98 in 4.0 mi Calm Calm - 0.00 in Rain Light Rain
9:53 AM 62.1 °F 59.0 °F 90% 30.01 in 5.0 mi SSE 5.8 mph - 0.00 in Rain Light Rain
10:08 AM 62.6 °F 59.0 °F 88% 29.98 in 2.5 mi SSE 8.1 mph - 0.01 in Rain Rain
10:17 AM 62.6 °F 59.0 °F 88% 29.98 in 5.0 mi SSE 6.9 mph - 0.01 in Rain Light Rain
10:53 AM 64.0 °F 60.1 °F 87% 30.00 in 3.0 mi SSE 9.2 mph - 0.01 in   Overcast
11:53 AM 64.9 °F 62.1 °F 90% 29.99 in 3.0 mi South 9.2 mph - N/A   Overcast
12:02 PM 64.4 °F 62.6 °F 94% 29.97 in 2.0 mi South 10.4 mph - N/A   Overcast
12:09 PM 64.4 °F 62.6 °F 94% 29.97 in 1.5 mi South 9.2 mph - N/A   Overcast
12:53 PM 66.0 °F 63.0 °F 90% 29.97 in 1.2 mi South 5.8 mph - 0.01 in   Overcast
1:16 PM 66.2 °F 62.6 °F 88% 29.93 in 2.5 mi SSE 4.6 mph - N/A   Overcast
1:30 PM 66.2 °F 62.6 °F 88% 29.92 in 3.0 mi SE 4.6 mph - N/A   Overcast
1:53 PM 68.0 °F 63.0 °F 84% 29.92 in 7.0 mi ESE 3.5 mph - N/A   Overcast
1:58 PM 68.0 °F 62.6 °F 83% 29.89 in 8.0 mi East 4.6 mph - N/A Thunderstorm Thunderstorm
2:12 PM 66.2 °F 62.6 °F 88% 29.92 in 1.5 mi Calm Calm - 0.01 in Rain , Thunderstorm Thunderstorms and Rain
2:20 PM 66.2 °F 62.6 °F 88% 29.90 in 0.5 mi ESE 4.6 mph - 0.01 in Fog , Rain , Thunderstorm Heavy Thunderstorms and Rain
2:26 PM 66.2 °F 62.6 °F 88% 29.89 in 1.0 mi ESE 6.9 mph - 0.01 in Rain , Thunderstorm Heavy Thunderstorms and Rain
2:32 PM 66.2 °F 62.6 °F 88% 29.89 in 3.0 mi ESE 3.5 mph - 0.01 in Rain , Thunderstorm Light Thunderstorms and Rain
2:38 PM 66.2 °F 62.6 °F 88% 29.89 in 4.0 mi ESE 4.6 mph - 0.01 in Rain Light Rain
2:53 PM 66.9 °F 63.0 °F 87% 29.91 in 6.0 mi SE 5.8 mph - 0.01 in Rain Light Rain
3:00 PM 66.2 °F 62.6 °F 88% 29.88 in 7.0 mi ESE 5.8 mph - 0.00 in Rain Light Rain
3:08 PM 66.2 °F 62.6 °F 88% 29.88 in 7.0 mi SE 8.1 mph - 0.00 in   Overcast
3:53 PM 66.9 °F 64.0 °F 90% 29.90 in 5.0 mi ESE 3.5 mph - 0.01 in Rain Light Rain
4:53 PM 66.9 °F 63.0 °F 87% 29.92 in 10.0 mi SE 4.6 mph - 0.01 in   Mostly Cloudy
5:42 PM 64.4 °F 62.6 °F 94% 29.91 in 1.5 mi Calm Calm - N/A   Clear
5:51 PM 64.4 °F 60.8 °F 88% 29.92 in 0.5 mi Calm Calm - N/A Fog Fog
5:53 PM 64.0 °F 61.0 °F 90% 29.94 in 0.5 mi Calm Calm - N/A Fog Fog
6:14 PM 62.6 °F 60.8 °F 94% 29.91 in 1.2 mi SSE 3.5 mph - 0.01 in   Partly Cloudy
6:18 PM 62.6 °F 59.0 °F 88% 29.91 in 3.0 mi SSE 5.8 mph - 0.01 in   Partly Cloudy
6:53 PM 64.0 °F 59.0 °F 84% 29.91 in 10.0 mi SSE 8.1 mph - 0.01 in   Clear
7:53 PM 64.0 °F 57.0 °F 78% 29.89 in 10.0 mi South 5.8 mph - 0.01 in   Clear
8:53 PM 61.0 °F 57.0 °F 87% 29.90 in 10.0 mi Calm Calm - N/A   Mostly Cloudy
9:53 PM 63.0 °F 57.0 °F 81% 29.88 in 10.0 mi SE 5.8 mph - 0.01 in   Overcast
10:53 PM 63.0 °F 55.9 °F 78% 29.85 in 10.0 mi SSE 10.4 mph - N/A   Mostly Cloudy
11:53 PM 64.9 °F 57.0 °F 75% 29.85 in 10.0 mi SSE 12.7 mph - N/A   Mostly Cloudy